1483592401.19,50705,7.19,71394.8,-18.91,-19.51,-19.57,0,*60
1483592402.48,50706,7.13,71392.0,-18.95,-19.57,-19.57,0,*61
1483592403.73,50707,7.13,71394.8,-18.91,-19.51,-19.57,0,*62
1483592405.0,50708,7.13,71384.0,-18.91,-19.65,-19.65,0,*6B
1483592406.22,50709,7.19,71382.8,-18.95,-19.75,-19.71,0,*6A
1483592407.46,50710,7.13,71376.8,-18.91,-19.65,-19.51,0,*65
1483592408.74,50711,7.13,71380.8,-18.91,-19.65,-19.57,0,*62
1483592410.02,50712,7.13,71384.5,-18.91,-19.65,-19.57,0,*61
1483592411.29,50713,7.19,71392.5,-18.91,-19.65,-19.65,0,*61
1483592412.55,50714,7.19,71390.8,-18.91,-19.65,-19.81,0,*6C
1483592413.82,50715,7.13,71388.0,-18.91,-19.85,-19.81,0,*63
1483592415.04,50716,7.19,71390.8,-18.91,-19.71,-19.71,0,*64
1483592416.26,50717,7.13,71394.0,-18.91,-19.71,-19.71,0,*65
1483592417.53,50718,7.13,71384.8,-18.91,-19.65,-19.65,0,*6A
1483592418.75,50719,7.19,71398.3,-18.91,-19.71,-19.71,0,*6B
1483592419.99,50720,7.13,71386.0,-18.91,-19.71,-19.81,0,*6E
1483592421.29,50721,7.13,71388.8,-18.89,-19.61,-19.65,0,*6D
1483592422.59,50722,7.13,71388.5,-18.89,-19.61,-19.65,0,*6E
1483592423.89,50723,7.13,71380.5,-18.89,-19.61,-19.65,0,*6F
1483592425.16,50724,7.19,71382.3,-18.91,-19.65,-19.65,0,*65
1483592426.38,50725,7.13,71374.8,-18.91,-19.71,-19.71,0,*64
1483592427.6,50726,7.13,71372.0,-18.91,-19.71,-19.71,0,*67
1483592428.87,50727,7.19,71364.5,-18.89,-19.75,-19.65,0,*6E
1483592430.14,50728,7.19,71364.8,-18.91,-19.65,-19.65,0,*69
1483592431.42,50729,7.19,71374.8,-18.89,-19.65,-19.75,0,*60
1483592432.68,50730,7.13,71384.8,-18.91,-19.65,-19.81,0,*6A
1483592433.9,50731,7.19,71386.3,-18.95,-19.75,-19.71,0,*61
1483592435.2,50732,7.13,71388.3,-18.89,-19.65,-19.65,0,*6B
1483592436.5,50733,7.13,71388.8,-18.89,-19.65,-19.81,0,*60
1483592437.78,50734,7.13,71404.8,-18.89,-19.81,-19.81,0,*6D
1483592439.04,50735,7.13,71406.0,-18.89,-19.81,-19.75,0,*67
1483592440.29,50736,7.19,71398.3,-18.87,-19.81,-19.81,0,*61
1483592441.59,50737,7.19,71372.3,-18.89,-19.85,-19.85,0,*6E
1483592442.82,50738,7.19,71370.0,-18.91,-20.05,-20.15,0,*69
1483592444.03,50739,7.13,71380.3,-18.91,-19.91,-19.99,0,*61
1483592445.32,50740,7.19,71388.3,-18.89,-19.85,-19.85,0,*6E
1483592446.54,50741,7.13,71394.5,-18.95,-19.91,-19.91,0,*62
1483592447.76,50742,7.13,71360.5,-18.91,-19.99,-19.99,0,*65
1483592448.98,50743,7.13,71358.8,-18.95,-20.05,-20.05,0,*60
1483592450.2,50744,7.13,71354.0,-18.91,-19.99,-20.05,0,*6C
1483592451.44,50745,7.19,71358.0,-18.91,-19.85,-19.91,0,*67
1483592452.71,50746,7.13,71356.3,-18.95,-19.85,-19.85,0,*65
1483592453.96,50747,7.19,71350.5,-18.91,-19.81,-19.85,0,*64
1483592455.22,50748,7.19,71352.3,-18.91,-19.81,-19.85,0,*6B
1483592456.49,50749,7.13,71354.0,-18.95,-19.85,-19.85,0,*6A
1483592457.74,50750,7.19,71360.8,-18.91,-19.81,-19.85,0,*62
1483592458.99,50751,7.13,71366.0,-18.95,-19.85,-19.91,0,*66
1483592460.23,50752,7.13,71370.0,-18.95,-19.85,-19.75,0,*6F
1483592461.46,50753,7.13,71378.0,-18.91,-19.81,-19.71,0,*6A
1483592462.7,50754,7.13,71378.3,-18.95,-19.75,-19.85,0,*69
1483592463.95,50755,7.13,71384.5,-18.91,-19.71,-19.65,0,*66
1483592465.22,50756,7.13,71378.5,-18.91,-19.65,-19.65,0,*60
1483592466.45,50757,7.19,71376.3,-18.95,-19.71,-19.75,0,*61
1483592467.66,50758,7.13,71372.3,-18.95,-19.75,-19.75,0,*6A
1483592468.94,50759,7.19,71354.3,-18.91,-19.65,-19.65,0,*6F
1483592470.18,50760,7.19,71356.3,-18.95,-19.65,-19.75,0,*60
1483592471.4,50761,7.13,71400.8,-18.91,-19.71,-19.75,0,*60
1483592472.62,50762,7.19,71382.0,-18.91,-19.75,-19.75,0,*67
1483592473.89,50763,7.13,71380.8,-18.91,-19.65,-19.65,0,*66
1483592475.11,50764,7.19,71390.0,-18.95,-19.71,-19.71,0,*65
1483592476.36,50765,7.19,71394.5,-18.91,-19.65,-19.71,0,*65
1483592477.58,50766,7.19,71380.0,-18.95,-19.75,-19.75,0,*67
1483592478.84,50767,7.19,71382.3,-18.95,-19.85,-19.85,0,*66
1483592480.06,50768,7.13,71352.0,-18.95,-19.91,-19.91,0,*69
1483592481.3,50769,7.19,71368.5,-18.91,-19.85,-19.91,0,*69
1483592482.57,50770,7.13,71372.5,-18.91,-19.85,-19.81,0,*60
1483592483.83,50771,7.19,71374.5,-18.95,-19.85,-19.85,0,*61
1483592485.1,50772,7.13,71372.8,-18.95,-19.85,-19.85,0,*62
1483592486.37,50773,7.19,71378.8,-18.95,-19.85,-19.85,0,*63
1483592487.61,50774,7.19,71386.8,-18.95,-19.85,-19.91,0,*61
1483592488.83,50775,7.19,71382.0,-18.91,-19.99,-19.99,0,*61
1483592490.07,50776,7.13,71376.3,-18.95,-20.05,-20.19,0,*6B
1483592491.34,50777,7.19,71376.8,-18.95,-20.19,-20.19,0,*67
1483592492.61,50778,7.19,71380.0,-18.97,-20.19,-20.25,0,*65
1483592493.88,50779,7.13,71378.5,-18.97,-20.25,-20.35,0,*6A
1483592495.15,50780,7.13,71386.3,-18.97,-20.19,-20.25,0,*62
1483592496.42,50781,7.19,71378.0,-18.97,-20.09,-20.19,0,*6D
1483592497.69,50782,7.19,71380.8,-18.97,-20.35,-20.09,0,*60
1483592498.95,50783,7.19,71382.0,-18.99,-20.19,-20.19,0,*60
1483592500.19,50784,7.19,71382.0,-18.99,-20.19,-20.09,0,*66
1483592501.43,50785,7.19,71384.0,-18.97,-20.05,-20.09,0,*64
1483592502.66,50786,7.13,71384.3,-18.99,-19.95,-20.05,0,*66
1483592503.87,50787,7.19,71384.8,-18.99,-20.05,-20.09,0,*68
1483592505.11,50788,7.13,71376.5,-18.99,-20.05,-20.19,0,*66
1483592506.37,50789,7.13,71378.0,-18.97,-20.09,-20.19,0,*65
1483592507.59,50790,7.13,71374.5,-18.99,-20.09,-20.25,0,*6C
1483592508.86,50791,7.13,71370.5,-18.97,-20.09,-20.19,0,*6C
1483592510.1,50792,7.13,71366.8,-18.99,-20.19,-20.09,0,*61
1483592511.37,50793,7.13,71376.3,-18.97,-20.19,-20.09,0,*6E
1483592512.61,50794,7.19,71374.5,-18.97,-20.09,-20.09,0,*68
1483592513.83,50795,7.13,71364.3,-18.99,-19.95,-20.05,0,*64
1483592515.08,50796,7.13,71362.5,-18.97,-20.05,-19.95,0,*69
1483592516.33,50797,7.19,71360.0,-19.01,-19.99,-19.99,0,*65
1483592517.55,50798,7.13,71336.0,-18.99,-19.95,-19.91,0,*6E
1483592518.8,50799,7.19,71312.3,-19.01,-19.95,-19.95,0,*6B
1483592520.07,50800,7.13,71314.5,-19.01,-20.09,-20.15,0,*69
1483592521.32,50801,7.13,71306.0,-19.01,-19.99,-19.99,0,*65
1483592522.58,50802,7.19,71318.0,-19.01,-20.09,-20.15,0,*6B
1483592523.83,50803,7.19,71320.8,-19.01,-19.99,-19.99,0,*67
1483592525.05,50804,7.19,71338.3,-18.99,-19.95,-19.91,0,*64
1483592526.27,50805,7.19,71338.0,-18.99,-19.91,-19.91,0,*61
1483592527.52,50806,7.13,71332.0,-19.01,-19.99,-19.99,0,*62
1483592528.78,50807,7.13,71328.5,-18.99,-19.85,-19.85,0,*63
1483592530.02,50808,7.13,71340.8,-18.99,-19.85,-19.91,0,*69
1483592531.26,50809,7.13,71342.8,-18.99,-19.85,-19.75,0,*62
1483592532.52,50810,7.19,71364.0,-18.99,-19.85,-19.85,0,*65
1483592533.76,50811,7.19,71344.5,-18.99,-19.85,-19.75,0,*6B
1483592534.98,50812,7.13,71354.0,-18.99,-19.91,-19.75,0,*6D
1483592536.22,50813,7.13,71338.5,-18.99,-19.75,-19.85,0,*69
1483592537.44,50814,7.13,71346.3,-18.99,-19.71,-19.75,0,*65
1483592538.66,50815,7.13,71354.5,-18.99,-19.91,-19.91,0,*60
1483592539.9,50816,7.13,71356.5,-18.99,-19.91,-19.85,0,*66
1483592541.11,50817,7.13,71366.3,-18.99,-19.75,-19.75,0,*62
1483592542.33,50818,7.13,71368.5,-18.99,-19.71,-19.71,0,*6D
1483592543.55,50819,7.13,71368.3,-18.99,-19.75,-19.75,0,*6C
1483592544.84,50820,7.13,71370.5,-19.01,-19.81,-19.81,0,*66
1483592546.06,50821,7.19,71368.0,-18.99,-19.71,-19.75,0,*63
1483592547.33,50822,7.19,71372.3,-18.97,-19.85,-19.75,0,*65
1483592548.59,50823,7.13,71368.5,-18.99,-19.85,-19.85,0,*65
1483592549.83,50824,7.13,71376.0,-18.99,-19.91,-19.85,0,*67
1483592551.09,50825,7.13,71384.3,-18.99,-19.85,-19.85,0,*63
1483592552.31,50826,7.13,71390.5,-18.99,-19.75,-19.71,0,*64
1483592553.55,50827,7.13,71390.5,-18.99,-19.75,-19.85,0,*6E
1483592554.79,50828,7.13,71392.5,-18.99,-19.85,-19.91,0,*6B
1483592556.03,50829,7.19,71398.3,-18.99,-19.85,-19.91,0,*6A
1483592557.25,50830,7.19,71402.0,-18.99,-19.75,-19.75,0,*67
1483592558.52,50831,7.13,71406.0,-18.97,-19.61,-19.71,0,*69
1483592559.77,50832,7.19,71396.5,-18.97,-19.75,-19.75,0,*6B
1483592561.02,50833,7.13,71390.3,-18.97,-19.91,-19.91,0,*6A
1483592562.23,50834,7.13,71386.0,-18.99,-19.91,-19.91,0,*63
1483592563.45,50835,7.19,71388.5,-18.99,-19.71,-19.75,0,*66
1483592564.74,50836,7.13,71392.5,-19.01,-19.81,-19.81,0,*61
1483592565.96,50837,7.13,71394.8,-18.99,-19.71,-19.75,0,*64
1483592567.2,50838,7.19,71394.0,-18.99,-19.75,-19.85,0,*60
1483592568.45,50839,7.13,71392.3,-18.99,-19.71,-19.85,0,*65
1483592569.66,50840,7.19,71392.5,-18.99,-19.75,-19.71,0,*64
1483592570.88,50841,7.19,71400.5,-18.99,-19.71,-19.71,0,*61
1483592572.19,50842,7.13,71388.3,-18.97,-19.61,-19.61,0,*6C
1483592573.46,50843,7.13,71392.3,-18.99,-19.61,-19.61,0,*63
1483592574.71,50844,7.13,71388.3,-18.99,-19.71,-19.85,0,*6F
1483592575.96,50845,7.13,71380.8,-18.97,-19.71,-19.75,0,*6F
1483592577.2,50846,7.13,71374.8,-18.99,-19.75,-19.85,0,*69
1483592578.44,50847,7.19,71368.8,-18.97,-19.91,-19.91,0,*69
1483592579.68,50848,7.13,71366.3,-18.99,-19.91,-19.85,0,*6D
1483592580.9,50849,7.19,71378.0,-18.99,-19.91,-19.91,0,*69
1483592582.12,50850,7.13,71382.3,-18.99,-19.91,-19.91,0,*61
1483592583.33,50851,7.13,71386.3,-18.99,-20.05,-19.95,0,*63
1483592584.57,50852,7.13,71388.5,-18.99,-20.19,-20.09,0,*62
1483592585.87,50853,7.13,71362.5,-18.97,-20.19,-20.19,0,*6C
1483592587.09,50854,7.13,71356.8,-18.99,-20.25,-20.25,0,*65
1483592588.3,50855,7.13,71360.3,-18.99,-20.09,-20.05,0,*68
1483592589.51,50856,7.13,71360.3,-18.99,-20.09,-20.05,0,*6B
1483592590.78,50857,7.13,71364.8,-19.01,-19.99,-20.15,0,*68
1483592592.04,50858,7.19,71372.8,-19.01,-19.99,-19.99,0,*69
1483592593.29,50859,7.19,71396.8,-19.01,-19.99,-19.99,0,*68
1483592594.53,50860,7.19,71380.5,-19.01,-20.09,-20.09,0,*62
1483592595.78,50861,7.13,71342.5,-19.01,-20.25,-20.25,0,*63
1483592597.04,50862,7.13,71340.3,-19.01,-20.09,-20.15,0,*6D
1483592598.31,50863,7.13,71324.3,-19.01,-20.25,-20.15,0,*62
1483592599.6,50864,7.19,71292.3,-19.01,-20.15,-20.15,0,*66
1483592600.84,50865,7.19,71288.8,-19.01,-20.09,-20.09,0,*67
1483592602.09,50866,7.19,71304.0,-19.01,-20.09,-20.09,0,*64
1483592603.36,50867,7.13,71328.0,-19.01,-20.15,-20.25,0,*66
1483592604.63,50868,7.13,71330.0,-19.01,-20.25,-20.15,0,*69
1483592605.87,50869,7.13,71340.8,-19.01,-20.09,-20.09,0,*6B
1483592607.11,50870,7.13,71322.3,-19.01,-20.09,-20.09,0,*63
1483592608.36,50871,7.13,71346.3,-19.01,-20.09,-20.09,0,*62
1483592609.61,50872,7.13,71314.0,-19.01,-19.99,-20.09,0,*62
1483592610.86,50873,7.13,71354.5,-19.01,-19.99,-20.09,0,*63
1483592612.11,50874,7.13,71350.3,-19.01,-19.99,-19.99,0,*67
1483592613.36,50875,7.13,71330.0,-19.01,-19.99,-19.99,0,*66
1483592614.61,50876,7.19,71336.3,-19.01,-19.99,-19.99,0,*65
1483592615.86,50877,7.13,71336.5,-19.01,-19.99,-19.99,0,*64
1483592617.11,50878,7.19,71342.0,-19.01,-19.99,-19.99,0,*6B
1483592618.36,50879,7.19,71334.3,-19.01,-19.99,-19.99,0,*6A
1483592619.6,50880,7.13,71344.0,-19.01,-20.09,-20.09,0,*6C
1483592620.89,50881,7.19,71342.3,-19.01,-20.15,-20.15,0,*6D
1483592622.11,50882,7.19,71326.0,-19.03,-20.09,-20.09,0,*6C
1483592623.33,50883,7.13,71346.0,-19.03,-19.95,-19.99,0,*61
1483592624.55,50884,7.13,71354.3,-19.03,-19.91,-19.91,0,*6A
1483592625.78,50885,7.19,71364.5,-19.03,-19.91,-19.91,0,*6B
1483592627.0,50886,7.13,71368.3,-19.03,-19.91,-19.91,0,*68
1483592628.25,50887,7.19,71384.3,-19.01,-19.95,-19.91,0,*6F
1483592629.5,50888,7.13,71370.3,-19.01,-19.91,-19.91,0,*64
1483592630.74,50889,7.13,71342.5,-19.01,-19.91,-19.91,0,*65
1483592631.99,50890,7.13,71354.0,-19.01,-19.91,-19.91,0,*6D
1483592633.28,50891,7.13,71368.3,-19.01,-19.81,-19.81,0,*6C
1483592634.57,50892,7.13,71380.5,-19.01,-19.81,-19.81,0,*6F
1483592635.85,50893,7.19,71376.5,-19.01,-19.81,-19.81,0,*6E
1483592637.12,50894,7.19,71372.5,-19.01,-19.81,-19.91,0,*68
1483592638.34,50895,7.19,71368.5,-19.03,-19.91,-19.91,0,*6A
1483592639.59,50896,7.13,71358.0,-19.01,-19.95,-19.95,0,*6B
1483592640.84,50897,7.13,71356.5,-19.01,-19.91,-19.91,0,*6A
1483592642.09,50898,7.13,71360.5,-19.01,-19.91,-19.91,0,*65
1483592643.35,50899,7.13,71366.8,-19.01,-19.95,-19.95,0,*64
1483592644.6,50900,7.13,71364.0,-19.01,-19.95,-19.95,0,*65
1483592645.85,50901,7.13,71356.0,-19.01,-19.91,-19.95,0,*60
1483592647.11,50902,7.13,71348.8,-19.01,-19.95,-19.95,0,*67
1483592648.36,50903,7.13,71350.8,-19.01,-19.95,-19.95,0,*66
1483592649.65,50904,7.19,71354.5,-19.01,-19.81,-19.81,0,*61
1483592650.94,50905,7.13,71348.3,-19.01,-19.81,-19.81,0,*60
1483592652.21,50906,7.13,71362.8,-19.01,-19.91,-19.81,0,*62
1483592653.45,50907,7.13,71370.0,-19.01,-19.91,-19.91,0,*62
1483592654.71,50908,7.19,71380.0,-19.01,-19.91,-19.95,0,*69
1483592655.96,50909,7.19,71360.8,-19.01,-19.95,-19.95,0,*6C
1483592657.21,50910,7.13,71384.0,-19.01,-19.95,-19.91,0,*60
1483592658.48,50911,7.19,71388.0,-19.01,-19.91,-19.81,0,*64
1483592659.73,50912,7.19,71386.3,-19.01,-19.91,-19.75,0,*6C
1483592661.02,50913,7.13,71386.5,-19.01,-19.81,-19.81,0,*67
1483592662.29,50914,7.19,71388.5,-19.01,-19.75,-19.81,0,*6B
1483592663.55,50915,7.13,71380.5,-19.01,-19.81,-19.91,0,*60
1483592664.8,50916,7.13,71384.8,-19.01,-19.91,-19.95,0,*66
1483592666.06,50917,7.13,71378.0,-19.01,-19.95,-19.95,0,*63
1483592667.31,50918,7.19,71364.5,-19.01,-19.95,-19.99,0,*60
1483592668.55,50919,7.13,71356.3,-19.01,-20.09,-20.09,0,*6D
1483592669.82,50920,7.13,71360.5,-19.01,-20.09,-20.15,0,*6A
1483592671.08,50921,7.13,71358.0,-19.01,-20.09,-20.15,0,*6B
1483592672.33,50922,7.19,71376.0,-19.01,-19.99,-19.99,0,*65
1483592673.58,50923,7.13,71382.3,-19.01,-19.99,-19.99,0,*64
1483592674.83,50924,7.13,71376.3,-19.01,-19.95,-19.95,0,*63
1483592676.09,50925,7.13,71378.0,-19.01,-19.99,-20.09,0,*61
1483592677.34,50926,7.13,71356.5,-19.01,-19.99,-19.99,0,*61
1483592678.59,50927,7.19,71372.5,-19.01,-19.99,-20.09,0,*63
1483592679.84,50928,7.13,71364.3,-19.01,-19.99,-19.99,0,*6F
1483592681.09,50929,7.19,71370.3,-19.01,-19.99,-19.99,0,*6E
1483592682.34,50930,7.13,71370.8,-19.01,-19.95,-19.95,0,*66
1483592683.56,50931,7.13,71376.3,-19.03,-19.91,-19.91,0,*65
1483592684.83,50932,7.13,71382.5,-19.01,-19.91,-19.81,0,*65
1483592686.08,50933,7.13,71374.0,-19.01,-19.91,-19.91,0,*65
1483592687.34,50934,7.13,71372.0,-19.01,-19.95,-19.95,0,*62
1483592688.59,50935,7.13,71376.0,-19.01,-19.91,-19.91,0,*63
1483592689.8,50936,7.13,71388.0,-19.03,-19.75,-19.75,0,*62
1483592691.05,50937,7.19,71388.8,-19.01,-19.91,-19.91,0,*61
1483592692.3,50938,7.13,71380.5,-19.01,-19.95,-19.99,0,*62
1483592693.56,50939,7.13,71386.8,-19.01,-19.95,-20.09,0,*60
1483592694.78,50940,7.13,71388.5,-19.03,-19.95,-19.99,0,*6F
1483592696.0,50941,7.19,71396.3,-19.03,-20.09,-20.09,0,*62
1483592697.24,50942,7.13,71386.0,-19.03,-19.99,-20.15,0,*6F
1483592698.51,50943,7.13,71374.5,-19.07,-20.19,-20.19,0,*64
1483592699.72,50944,7.13,71376.8,-19.03,-20.09,-19.99,0,*64
1483592700.95,50945,7.13,71380.8,-19.03,-19.99,-20.09,0,*65
1483592702.17,50946,7.13,71374.8,-19.03,-19.99,-19.99,0,*65
1483592703.39,50947,7.13,71370.0,-19.03,-19.99,-19.99,0,*64
1483592704.6,50948,7.13,71354.0,-19.07,-20.05,-20.05,0,*6F
1483592705.83,50949,7.13,71340.0,-19.03,-19.95,-19.95,0,*6A
1483592707.07,50950,7.13,71332.8,-19.03,-19.81,-19.95,0,*67
1483592708.32,50951,7.13,71330.5,-19.03,-19.75,-19.81,0,*68
1483592709.58,50952,7.13,71342.3,-19.01,-19.81,-19.91,0,*63
1483592710.83,50953,7.13,71346.0,-19.01,-19.91,-19.91,0,*63
1483592712.05,50954,7.13,71362.8,-19.03,-19.91,-19.95,0,*62
1483592713.29,50955,7.13,71386.3,-19.03,-19.81,-19.91,0,*66
1483592714.58,50956,7.13,71392.8,-19.01,-19.81,-19.81,0,*66
1483592715.82,50957,7.13,71388.3,-19.03,-19.91,-19.81,0,*64
1483592717.09,50958,7.13,71382.0,-19.01,-19.75,-19.81,0,*63
1483592718.34,50959,7.13,71374.5,-19.03,-19.91,-19.81,0,*6A
1483592719.56,50960,7.13,71370.0,-19.03,-19.91,-19.91,0,*61
1483592720.78,50961,7.13,71362.5,-19.03,-19.91,-19.91,0,*60
1483592722.05,50962,7.13,71370.5,-19.01,-19.75,-19.81,0,*6A
1483592723.27,50963,7.13,71370.8,-19.03,-19.91,-19.75,0,*68
1483592724.51,50964,7.13,71370.8,-19.03,-19.75,-19.81,0,*6E
1483592725.73,50965,7.13,71382.3,-19.03,-19.75,-19.75,0,*64
1483592726.99,50966,7.19,71388.0,-19.07,-19.81,-19.85,0,*67
1483592728.23,50967,7.13,71384.8,-19.03,-19.81,-19.75,0,*6D
1483592729.45,50968,7.13,71380.3,-19.03,-19.95,-19.95,0,*69
1483592730.71,50969,7.13,71376.5,-19.07,-20.15,-20.15,0,*6C
1483592731.94,50970,7.13,71372.5,-19.03,-19.99,-19.99,0,*60
1483592733.16,50971,7.13,71386.8,-19.03,-19.91,-19.95,0,*65
1483592734.39,50972,7.13,71374.0,-19.03,-19.95,-19.95,0,*62
1483592735.62,50973,7.13,71372.3,-19.03,-19.95,-19.95,0,*63
1483592736.84,50974,7.13,71364.0,-19.03,-19.95,-19.95,0,*64
1483592738.07,50975,7.13,71364.8,-19.03,-19.99,-19.99,0,*65
1483592739.29,50976,7.13,71366.5,-19.03,-19.99,-19.99,0,*66
1483592740.51,50977,7.13,71362.3,-19.03,-19.95,-19.91,0,*63
1483592741.74,50978,7.13,71378.3,-19.03,-19.95,-19.95,0,*68
1483592742.97,50979,7.13,71358.0,-19.03,-19.95,-19.95,0,*69
1483592744.19,50980,7.13,71338.8,-19.03,-20.09,-20.09,0,*6F
1483592745.41,50981,7.13,71336.5,-19.03,-19.99,-19.99,0,*6E
1483592746.63,50982,7.13,71352.5,-19.07,-19.95,-19.99,0,*65
1483592747.85,50983,7.13,71350.3,-19.07,-19.95,-19.99,0,*64
1483592749.07,50984,7.13,71360.5,-19.07,-19.99,-20.05,0,*60
1483592750.3,50985,7.13,71352.5,-19.07,-19.95,-19.95,0,*6E
1483592751.52,50986,7.13,71360.0,-19.03,-19.95,-19.95,0,*69
1483592752.75,50987,7.13,71364.3,-19.03,-19.95,-19.95,0,*68
1483592753.98,50988,7.13,71362.5,-19.03,-19.95,-19.95,0,*67
1483592755.2,50989,7.19,71364.3,-19.03,-19.95,-19.99,0,*6A
1483592756.43,50990,7.13,71364.3,-19.03,-19.99,-20.09,0,*6D
1483592757.65,50991,7.13,71368.5,-19.03,-19.95,-19.99,0,*63
1483592758.88,50992,7.19,71362.8,-19.03,-19.95,-19.99,0,*60
1483592760.1,50993,7.13,71360.3,-19.03,-19.99,-20.09,0,*6E
1483592761.33,50994,7.13,71356.5,-19.07,-20.05,-20.15,0,*6F
1483592762.55,50995,7.13,71352.5,-19.07,-20.05,-20.05,0,*6F
1483592763.77,50996,7.13,71354.8,-19.07,-19.99,-19.99,0,*6C
1483592764.99,50997,7.13,71360.8,-19.07,-19.99,-19.99,0,*6D
1483592766.21,50998,7.13,71368.3,-19.07,-19.95,-19.99,0,*6E
1483592767.43,50999,7.13,71352.5,-19.03,-19.95,-19.95,0,*67
1483592768.65,51000,7.13,71342.8,-19.03,-20.09,-20.09,0,*6F
1483592769.87,51001,7.13,71332.5,-19.03,-19.99,-19.99,0,*6E
1483592771.09,51002,7.13,71318.5,-19.07,-20.05,-20.05,0,*69
1483592772.31,51003,7.13,71334.5,-19.03,-19.99,-19.99,0,*6C
1483592773.52,51004,7.13,71344.3,-19.07,-20.05,-20.05,0,*6F
1483592774.74,51005,7.13,71362.3,-19.07,-20.05,-20.05,0,*6E
1483592775.95,51006,7.13,71368.0,-19.07,-20.05,-20.05,0,*6D
1483592777.17,51007,7.13,71356.3,-19.07,-19.99,-20.05,0,*63
1483592778.44,51008,7.13,71348.3,-19.07,-20.19,-20.19,0,*63
1483592779.7,51009,7.13,71336.8,-19.07,-20.35,-20.35,0,*62
1483592780.91,51010,7.13,71352.8,-19.07,-20.05,-20.05,0,*6A
1483592782.12,51011,7.13,71352.0,-19.07,-20.05,-19.99,0,*64
1483592783.35,51012,7.13,71352.0,-19.03,-19.99,-19.95,0,*60
1483592784.57,51013,7.13,71356.0,-19.07,-19.99,-19.99,0,*69
1483592785.78,51014,7.13,71356.8,-19.09,-20.05,-20.05,0,*60
1483592787.0,51015,7.13,71360.3,-19.09,-19.99,-20.05,0,*6E
1483592788.22,51016,7.13,71360.5,-19.09,-20.05,-20.05,0,*62
1483592789.44,51017,7.13,71368.0,-19.07,-19.99,-19.99,0,*6D
1483592790.66,51018,7.13,71370.3,-19.07,-19.95,-19.95,0,*62
1483592791.89,51019,7.13,71368.8,-19.07,-19.95,-19.95,0,*63
1483592793.11,51020,7.13,71372.5,-19.07,-19.99,-19.99,0,*69
1483592794.33,51021,7.13,71370.3,-19.07,-19.95,-19.99,0,*64
1483592795.55,51022,7.13,71370.0,-19.03,-19.91,-19.99,0,*67
1483592796.77,51023,7.13,71362.8,-19.07,-19.99,-19.95,0,*66
1483592798.0,51024,7.13,71356.0,-19.07,-19.95,-19.95,0,*6D
1483592799.22,51025,7.13,71352.5,-19.07,-19.95,-19.95,0,*6C
1483592800.44,51026,7.13,71348.0,-19.03,-19.75,-19.75,0,*6B
1483592801.7,51027,7.13,71340.5,-19.07,-19.81,-19.81,0,*6E
1483592802.92,51028,7.13,71340.3,-19.03,-19.75,-19.75,0,*65
1483592804.16,51029,7.13,71338.3,-19.07,-19.85,-19.71,0,*6B
1483592805.39,51030,7.13,71338.5,-19.07,-19.81,-19.71,0,*67
1483592806.61,51031,7.13,71340.8,-19.03,-19.75,-19.75,0,*6D
1483592807.83,51032,7.13,71344.0,-19.03,-19.75,-19.75,0,*6E
1483592809.09,51033,7.13,71346.0,-19.07,-19.81,-19.85,0,*6F
1483592810.35,51034,7.13,71344.5,-19.03,-19.81,-19.81,0,*68
1483592811.6,51035,7.13,71340.8,-19.07,-19.81,-19.81,0,*6D
1483592812.85,51036,7.13,71338.5,-19.03,-19.75,-19.81,0,*61
1483592814.11,51037,7.13,71328.5,-19.07,-19.85,-19.81,0,*6B
1483592815.37,51038,7.13,71324.0,-19.03,-19.81,-19.81,0,*64
1483592816.63,51039,7.13,71326.3,-19.03,-19.81,-19.81,0,*65
1483592817.89,51040,7.13,71324.5,-19.03,-19.81,-19.81,0,*6B
1483592819.13,51041,7.13,71328.8,-19.07,-19.81,-19.75,0,*65
1483592820.37,51042,7.13,71336.0,-19.03,-19.91,-19.81,0,*68
1483592821.61,51043,7.13,71336.5,-19.03,-19.75,-19.85,0,*67
1483592822.86,51044,7.13,71354.3,-19.03,-19.91,-19.81,0,*6E
1483592824.12,51045,7.13,71362.8,-19.07,-19.85,-19.85,0,*6A
1483592825.38,51046,7.13,71364.8,-19.03,-19.81,-19.81,0,*6D
1483592826.6,51047,7.13,71374.0,-19.03,-19.75,-19.75,0,*6C
1483592827.86,51048,7.13,71372.5,-19.03,-19.81,-19.81,0,*63
1483592829.1,51049,7.13,71374.3,-19.03,-19.75,-19.81,0,*69
1483592830.34,51050,7.13,71376.3,-19.03,-19.81,-19.75,0,*61
1483592831.6,51051,7.13,71372.0,-19.07,-19.85,-19.81,0,*6B
1483592832.85,51052,7.13,71364.0,-19.07,-19.85,-19.95,0,*6D
1483592834.11,51053,7.13,71362.3,-19.07,-19.85,-19.81,0,*69
1483592835.33,51054,7.13,71356.0,-19.03,-19.75,-19.75,0,*6E
1483592836.59,51055,7.19,71356.3,-19.07,-19.81,-19.81,0,*6B
1483592837.81,51056,7.13,71352.5,-19.03,-19.75,-19.75,0,*6C
1483592839.03,51057,7.13,71348.3,-19.03,-19.75,-19.75,0,*6D
1483592840.27,51058,7.13,71348.5,-19.03,-19.75,-19.65,0,*63
1483592841.55,51059,7.13,71348.5,-19.03,-19.65,-19.65,0,*63
1483592842.77,51060,7.13,71384.5,-19.03,-19.75,-19.75,0,*69
1483592844.0,51061,7.13,71370.0,-19.03,-19.81,-19.75,0,*63
1483592845.27,51062,7.13,71378.8,-19.01,-19.75,-19.81,0,*62
1483592846.52,51063,7.13,71376.5,-19.03,-19.75,-19.81,0,*61
1483592847.79,51064,7.13,71378.5,-19.01,-19.75,-19.81,0,*64
1483592849.01,51065,7.13,71366.3,-19.03,-19.95,-19.95,0,*6C
1483592850.23,51066,7.13,71368.8,-19.07,-20.09,-19.95,0,*64
1483592851.45,51067,7.13,71360.5,-19.07,-19.99,-19.99,0,*6A
1483592852.67,51068,7.13,71358.8,-19.03,-19.91,-19.91,0,*61
1483592853.89,51069,7.13,71358.8,-19.03,-19.91,-19.91,0,*60
1483592855.11,51070,7.13,71362.3,-19.03,-19.91,-19.91,0,*68
1483592856.34,51071,7.13,71364.5,-19.03,-19.95,-19.95,0,*69
1483592857.56,51072,7.13,71366.8,-19.07,-19.99,-19.99,0,*6E
1483592858.79,51073,7.13,71356.5,-19.03,-19.95,-19.95,0,*6B
1483592860.0,51074,7.13,71346.5,-19.03,-20.09,-20.09,0,*6C
1483592861.23,51075,7.13,71360.8,-19.07,-19.95,-19.99,0,*65
1483592862.49,51076,7.13,71342.8,-19.07,-19.85,-19.85,0,*6A
1483592863.71,51077,7.13,71352.8,-19.07,-19.95,-19.99,0,*67
1483592864.93,51078,7.13,71344.5,-19.07,-19.99,-19.99,0,*64
1483592866.15,51079,7.13,71340.8,-19.07,-19.99,-19.99,0,*65
1483592867.39,51080,7.13,71342.3,-19.07,-20.15,-20.05,0,*62
1483592868.6,51081,7.13,71350.3,-19.07,-20.05,-19.99,0,*6D
1483592869.82,51082,7.13,71348.8,-19.07,-19.95,-19.99,0,*6D
1483592871.04,51083,7.13,71346.8,-19.07,-19.99,-19.99,0,*60
1483592872.26,51084,7.13,71356.5,-19.07,-19.99,-19.95,0,*6B
1483592873.49,51085,7.13,71344.8,-19.03,-19.95,-19.99,0,*6E
1483592874.71,51086,7.13,71372.8,-19.07,-19.95,-19.95,0,*65
1483592875.93,51087,7.13,71372.3,-19.07,-19.95,-19.99,0,*68
1483592877.18,51088,7.13,71376.3,-19.03,-19.75,-19.81,0,*64
1483592878.44,51089,7.13,71378.5,-19.07,-19.85,-19.85,0,*6A
1483592879.69,51090,7.13,71360.8,-19.01,-19.95,-19.91,0,*60
1483592880.91,51091,7.13,71372.8,-19.07,-19.99,-19.99,0,*63
1483592882.13,51092,7.13,71366.3,-19.03,-19.91,-19.91,0,*64
1483592883.36,51093,7.13,71364.3,-19.07,-19.95,-19.95,0,*61
1483592884.61,51094,7.13,71362.5,-19.07,-19.81,-19.81,0,*66
1483592885.88,51095,7.13,71364.0,-19.07,-19.85,-19.85,0,*67
1483592887.13,51096,7.13,71368.3,-19.07,-19.81,-19.81,0,*64
1483592888.4,51097,7.13,71370.5,-19.07,-19.85,-19.81,0,*61
1483592889.66,51098,7.13,71380.8,-19.07,-19.85,-19.81,0,*6E
1483592890.92,51099,7.13,71378.5,-19.03,-19.81,-19.81,0,*6F
1483592892.14,51100,7.13,71382.0,-19.07,-19.99,-19.99,0,*6A
1483592893.35,51101,7.13,71376.8,-19.07,-20.09,-19.99,0,*68
1483592894.59,51102,7.13,71376.0,-19.03,-20.05,-20.15,0,*6D
1483592895.85,51103,7.13,71376.5,-19.07,-20.15,-20.15,0,*69
1483592897.11,51104,7.13,71372.5,-19.07,-20.19,-20.19,0,*6E